When you browse on this site, cookies collect data to enhance your experience and personalize the content and advertising you see.
Visit our Privacy Policy to learn more. By continuing to use the site, you agree to this use of cookies and data.
  • In Sweden
  • List of Countries
  • For 7 days
  • Water Temperature
  • Satellite Maps
  • Weather Map
  • Weather Widgets
  • user-avatar
    Login

    Hourly Weather Belen

    Today, 21 November, Wednesday

    Time Temperature Precipitation Wind Pressure Humidity
    00:00 +14°C° 0 mm 1 mps 715 mmHg 61%
    01:00 +14°C° 0 mm 1 mps 715 mmHg 63%
    02:00 +13°C° 0 mm 1 mps 715 mmHg 64%
    03:00 +13°C° 0 mm 1 mps 715 mmHg 66%
    04:00 +13°C° 0 mm 1 mps 715 mmHg 67%
    05:00 +13°C° 0 mm 1 mps 715 mmHg 68%
    06:00 +14°C° 0 mm 1 mps 715 mmHg 66%
    07:00 +14°C° 0 mm 1 mps 715 mmHg 64%
    08:00 +15°C° 0 mm 1 mps 715 mmHg 62%
    09:00 +16°C° 0 mm 1 mps 715 mmHg 59%
    10:00 +17°C° 0 mm 2 mps 715 mmHg 56%
    11:00 +18°C° 0 mm 2 mps 715 mmHg 53%
    12:00 +18°C° 0 mm 2 mps 714 mmHg 55%
    13:00 +18°C° 0 mm 2 mps 714 mmHg 57%
    14:00 +18°C° 0 mm 2 mps 713 mmHg 59%
    15:00 +17°C° 0.1 mm 2 mps 713 mmHg 64%
    16:00 +16°C° 0.1 mm 2 mps 713 mmHg 68%
    17:00 +15°C° 0.1 mm 2 mps 713 mmHg 73%
    18:00 +15°C° 0.3 mm 2 mps 713 mmHg 75%
    19:00 +15°C° 0.3 mm 2 mps 713 mmHg 77%
    20:00 +15°C° 0.3 mm 2 mps 713 mmHg 79%
    21:00 +14°C° 0.4 mm 2 mps 713 mmHg 81%
    22:00 +14°C° 0.4 mm 2 mps 712 mmHg 83%
    23:00 +14°C° 0.4 mm 1 mps 712 mmHg 85%

    Tomorrow, 22 November, Thursday

    Time Temperature Precipitation Wind Pressure Humidity
    00:00 +13°C° 0.6 mm 1 mps 712 mmHg 86%
    01:00 +13°C° 0.6 mm 1 mps 712 mmHg 87%
    02:00 +13°C° 0.6 mm 1 mps 712 mmHg 88%
    03:00 +13°C° 0.4 mm 1 mps 711 mmHg 88%
    04:00 +13°C° 0.4 mm 1 mps 711 mmHg 88%
    05:00 +13°C° 0.4 mm 1 mps 711 mmHg 88%
    06:00 +13°C° 0.1 mm 1 mps 711 mmHg 85%
    07:00 +14°C° 0.1 mm 1 mps 712 mmHg 82%
    08:00 +14°C° 0.1 mm 1 mps 712 mmHg 79%
    09:00 +15°C° 0 mm 1 mps 712 mmHg 73%
    10:00 +18°C° 0 mm 1 mps 712 mmHg 67%
    11:00 +18°C° 0 mm 2 mps 712 mmHg 62%
    12:00 +18°C° 0.1 mm 2 mps 711 mmHg 61%
    13:00 +18°C° 0.1 mm 2 mps 711 mmHg 60%
    14:00 +18°C° 0.1 mm 2 mps 711 mmHg 60%
    15:00 +17°C° 0.3 mm 2 mps 711 mmHg 64%
    16:00 +16°C° 0.3 mm 1 mps 711 mmHg 68%
    17:00 +15°C° 0.3 mm 1 mps 711 mmHg 71%
    18:00 +15°C° 0.4 mm 1 mps 711 mmHg 73%
    19:00 +15°C° 0.4 mm 2 mps 711 mmHg 74%
    20:00 +14°C° 0.4 mm 2 mps 711 mmHg 76%
    21:00 +14°C° 0.4 mm 2 mps 711 mmHg 77%
    22:00 +14°C° 0.4 mm 2 mps 711 mmHg 78%
    23:00 +13°C° 0.4 mm 2 mps 711 mmHg 79%

    Day after tomorrow, 23 November, Friday

    Time Temperature Precipitation Wind Pressure Humidity
    00:00 +13°C° 0.4 mm 2 mps 711 mmHg 80%
    01:00 +13°C° 0.4 mm 2 mps 711 mmHg 81%
    02:00 +13°C° 0.4 mm 2 mps 711 mmHg 82%
    03:00 +12°C° 0.3 mm 2 mps 711 mmHg 83%
    04:00 +11°C° 0.3 mm 3 mps 711 mmHg 84%
    05:00 +11°C° 0.3 mm 3 mps 711 mmHg 85%
    06:00 +11°C° 0.2 mm 3 mps 711 mmHg 83%
    07:00 +12°C° 0.2 mm 3 mps 712 mmHg 81%
    08:00 +12°C° 0.2 mm 3 mps 712 mmHg 79%
    09:00 +13°C° 0.3 mm 3 mps 712 mmHg 75%
    10:00 +14°C° 0.3 mm 3 mps 712 mmHg 70%
    11:00 +16°C° 0.3 mm 3 mps 712 mmHg 65%
    12:00 +16°C° 0.4 mm 3 mps 712 mmHg 63%
    13:00 +16°C° 0.4 mm 3 mps 711 mmHg 61%
    14:00 +17°C° 0.4 mm 3 mps 711 mmHg 59%
    15:00 +16°C° 0.2 mm 3 mps 711 mmHg 62%
    16:00 +14°C° 0.2 mm 3 mps 711 mmHg 66%
    17:00 +13°C° 0.2 mm 3 mps 711 mmHg 70%
    18:00 +13°C° 0.1 mm 3 mps 711 mmHg 71%
    19:00 +12°C° 0.1 mm 3 mps 712 mmHg 73%
    20:00 +12°C° 0.1 mm 3 mps 712 mmHg 75%
    21:00 +12°C° 0.2 mm 3 mps 712 mmHg 76%
    22:00 +12°C° 0.2 mm 3 mps 712 mmHg 77%
    23:00 +11°C° 0.2 mm 3 mps 712 mmHg 78%

    24 November, Saturday

    Time Temperature Precipitation Wind Pressure Humidity
    00:00 +11°C° 0.3 mm 3 mps 712 mmHg 79%
    01:00 +11°C° 0.3 mm 3 mps 712 mmHg 80%
    02:00 +11°C° 0.3 mm 4 mps 712 mmHg 81%
    03:00 +11°C° 0.4 mm 3 mps 712 mmHg 80%
    04:00 +11°C° 0.4 mm 3 mps 712 mmHg 80%
    05:00 +10°C° 0.4 mm 3 mps 712 mmHg 80%
    06:00 +11°C° 0.3 mm 3 mps 713 mmHg 78%
    07:00 +11°C° 0.3 mm 4 mps 713 mmHg 77%
    08:00 +11°C° 0.3 mm 4 mps 714 mmHg 75%
    09:00 +12°C° 0.1 mm 4 mps 714 mmHg 72%
    10:00 +13°C° 0.1 mm 4 mps 714 mmHg 68%
    11:00 +14°C° 0.1 mm 4 mps 714 mmHg 65%
    12:00 +15°C° 0.2 mm 4 mps 714 mmHg 64%
    13:00 +15°C° 0.2 mm 4 mps 713 mmHg 63%
    14:00 +15°C° 0.2 mm 4 mps 713 mmHg 62%
    15:00 +15°C° 0.3 mm 4 mps 713 mmHg 66%
    16:00 +14°C° 0.3 mm 3 mps 713 mmHg 70%
    17:00 +13°C° 0.3 mm 3 mps 714 mmHg 73%
    18:00 +13°C° 0.5 mm 3 mps 714 mmHg 76%
    19:00 +12°C° 0.5 mm 3 mps 714 mmHg 78%
    20:00 +12°C° 0.5 mm 3 mps 714 mmHg 80%
    21:00 +12°C° 0.3 mm 3 mps 714 mmHg 81%
    22:00 +11°C° 0.3 mm 3 mps 715 mmHg 81%
    23:00 +11°C° 0.3 mm 3 mps 715 mmHg 82%

    25 November, Sunday

    Time Temperature Precipitation Wind Pressure Humidity
    00:00 +11°C° 0.2 mm 3 mps 714 mmHg 83%
    01:00 +11°C° 0.2 mm 3 mps 714 mmHg 84%
    02:00 +10°C° 0.2 mm 3 mps 714 mmHg 85%
    03:00 +10°C° 0.1 mm 3 mps 714 mmHg 85%
    04:00 +10°C° 0.1 mm 3 mps 714 mmHg 85%
    05:00 +10°C° 0.1 mm 2 mps 714 mmHg 86%
    06:00 +10°C° 0.1 mm 2 mps 714 mmHg 84%
    07:00 +12°C° 0.1 mm 2 mps 714 mmHg 82%
    08:00 +12°C° 0.1 mm 2 mps 714 mmHg 80%
    09:00 +13°C° 0.2 mm 2 mps 714 mmHg 75%
    10:00 +14°C° 0.2 mm 1 mps 714 mmHg 71%
    11:00 +15°C° 0.2 mm 1 mps 714 mmHg 66%
    12:00 +15°C° 0.1 mm 1 mps 714 mmHg 65%
    13:00 +15°C° 0.1 mm 1 mps 714 mmHg 63%
    14:00 +15°C° 0.1 mm 1 mps 713 mmHg 61%
    15:00 +15°C° 0.1 mm 1 mps 713 mmHg 64%
    16:00 +14°C° 0.1 mm 1 mps 713 mmHg 67%
    17:00 +14°C° 0.1 mm 1 mps 713 mmHg 70%
    18:00 +12°C° 0 mm 0 mps 714 mmHg 72%
    19:00 +12°C° 0 mm 0 mps 714 mmHg 74%
    20:00 +11°C° 0 mm 0 mps 714 mmHg 76%
    21:00 +11°C° 0 mm 0 mps 714 mmHg 77%
    22:00 +12°C° 0 mm 1 mps 714 mmHg 79%
    23:00 +11°C° 0 mm 1 mps 714 mmHg 80%

    26 November, Monday

    Time Temperature Precipitation Wind Pressure Humidity
    00:00 +11°C° 0 mm 1 mps 714 mmHg 81%
    01:00 +11°C° 0 mm 1 mps 713 mmHg 82%
    02:00 +11°C° 0 mm 1 mps 713 mmHg 83%
    03:00 +11°C° 0 mm 1 mps 713 mmHg 83%
    04:00 +10°C° 0 mm 1 mps 713 mmHg 83%
    05:00 +10°C° 0 mm 1 mps 713 mmHg 84%
    06:00 +11°C° 0 mm 1 mps 714 mmHg 81%
    07:00 +12°C° 0 mm 1 mps 714 mmHg 78%
    08:00 +12°C° 0 mm 1 mps 714 mmHg 75%
    09:00 +13°C° 0 mm 1 mps 714 mmHg 69%
    10:00 +14°C° 0 mm 1 mps 714 mmHg 64%
    11:00 +16°C° 0 mm 1 mps 714 mmHg 59%
    12:00 +16°C° 0 mm 1 mps 714 mmHg 57%
    13:00 +16°C° 0 mm 1 mps 714 mmHg 55%
    14:00 +16°C° 0 mm 2 mps 713 mmHg 53%
    15:00 +16°C° 0 mm 1 mps 713 mmHg 57%
    16:00 +15°C° 0 mm 1 mps 714 mmHg 61%
    17:00 +14°C° 0 mm 1 mps 714 mmHg 65%
    18:00 +14°C° 0 mm 1 mps 714 mmHg 67%
    19:00 +13°C° 0 mm 1 mps 714 mmHg 68%
    20:00 +13°C° 0 mm 1 mps 714 mmHg 69%
    21:00 +13°C° 0 mm 1 mps 714 mmHg 70%
    22:00 +13°C° 0 mm 1 mps 714 mmHg 71%
    23:00 +12°C° 0 mm 1 mps 714 mmHg 72%
    Show more